GW3496 Weather Reports


Display with metric or nautical units.
time (UTC)temp
F
wind
direction
speed
MPH
gust
MPH
rain 1hr
in
rain 24hr
in
rain mn
in
humidity
%
barometer
mb
20260505113036 63 230 4.0 12.0 0.00 0.00 0.00 61 1010.7
20260505111534 62 236 6.0 9.0 0.00 0.00 0.00 61 1010.5
20260505101542 62 192 1.0 7.0 0.00 0.00 0.00 61 1010.1
20260505100035 62 188 4.0 10.0 0.00 0.00 0.00 60 1010.0
20260505094541 62 215 6.0 13.0 0.00 0.00 0.00 60 1010.1
20260505093040 63 189 6.0 10.0 0.00 0.00 0.00 59 1009.8
20260505091539 63 190 7.0 12.0 0.00 0.00 0.00 58 1009.9
20260505090045 63 196 7.0 16.0 0.00 0.00 0.00 58 1009.7
20260505084550 63 232 8.0 17.0 0.00 0.00 0.00 57 1009.7
20260505083048 63 179 8.0 12.0 0.00 0.00 0.00 56 1009.6
20260505081552 63 193 8.0 17.0 0.00 0.00 0.00 56 1009.5
20260505080048 63 198 7.0 13.0 0.00 0.00 0.00 56 1009.4
20260505074538 63 200 6.0 15.0 0.00 0.00 0.00 55 1009.5
20260505073044 64 201 7.0 15.0 0.00 0.00 0.00 55 1009.5
20260505071545 64 198 6.0 11.0 0.00 0.00 0.00 55 1009.4
20260505070044 64 216 6.0 11.0 0.00 0.00 0.00 55 1009.4
20260505064541 64 232 7.0 12.0 0.00 0.00 0.00 55 1009.1
20260505063040 64 204 6.0 12.0 0.00 0.00 0.00 55 1009.3
20260505061551 65 192 6.0 12.0 0.00 0.00 0.00 54 1009.4
20260505060034 65 229 8.0 13.0 0.00 0.00 0.00 53 1009.3
20260505054530 65 209 8.0 11.0 0.00 0.00 0.00 53 1009.1
20260505053035 65 231 7.0 14.0 0.00 0.00 0.00 53 1009.0
20260505051531 66 188 5.0 11.0 0.00 0.00 0.00 53 1009.1
20260505041533 67 216 7.0 12.0 0.00 0.00 0.00 51 1008.9
20260505040039 68 215 5.0 11.0 0.00 0.00 0.00 50 1008.9
20260505034533 68 234 5.0 12.0 0.00 0.00 0.00 50 1009.1
20260505033039 68 227 5.0 10.0 0.00 0.00 0.00 50 1009.0
20260505031550 69 254 5.0 12.0 0.00 0.00 0.00 49 1009.2
20260505030035 69 190 5.0 12.0 0.00 0.00 0.00 49 1009.3
20260505024545 69 213 5.0 9.0 0.00 0.00 0.00 48 1009.2
20260505023040 69 211 6.0 11.0 0.00 0.00 0.00 48 1009.0
20260505021536 70 192 4.0 8.0 0.00 0.00 0.00 47 1009.1
20260505020041 70 205 4.0 7.0 0.00 0.00 0.00 46 1009.0
20260505014559 71 193 3.0 6.0 0.00 0.00 0.00 45 1008.8
20260505013034 71 205 3.0 7.0 0.00 0.00 0.00 44 1008.7
20260505011540 72 182 3.0 6.0 0.00 0.00 0.00 42 1008.7
20260505010033 73 195 6.0 12.0 0.00 0.00 0.00 41 1008.6
20260505004535 73 217 6.0 9.0 0.00 0.00 0.00 40 1008.5
20260505003035 74 183 7.0 12.0 0.00 0.00 0.00 39 1008.2
20260505001542 74 213 7.0 12.0 0.00 0.00 0.00 38 1008.5
20260505000035 74 209 10.0 17.0 0.00 0.00 0.00 38 1008.5
20260504234541 75 159 8.0 17.0 0.00 0.00 0.00 38 1008.2
20260504233035 75 207 8.0 14.0 0.00 0.00 0.00 37 1008.1
20260504231531 76 175 11.0 18.0 0.00 0.00 0.00 37 1008.0
20260504230035 76 217 10.0 17.0 0.00 0.00 0.00 36 1007.9
20260504224538 77 198 7.0 14.0 0.00 0.00 0.00 36 1008.2
20260504223035 77 245 11.0 17.0 0.00 0.00 0.00 35 1008.1
20260504221535 77 235 14.0 23.0 0.00 0.00 0.00 35 1008.2
20260504220034 77 240 8.0 16.0 0.00 0.00 0.00 35 1008.2
20260504214535 77 237 11.0 16.0 0.00 0.00 0.00 35 1008.3
20260504213033 77 161 13.0 23.0 0.00 0.00 0.00 35 1008.3
20260504211539 77 199 11.0 26.0 0.00 0.00 0.00 34 1008.3
20260504210055 76 169 9.0 17.0 0.00 0.00 0.00 34 1008.2
20260504204551 77 76 7.0 24.0 0.00 0.00 0.00 33 1008.3
20260504203041 77 247 8.0 20.0 0.00 0.00 0.00 33 1008.4
20260504201535 76 213 13.0 19.0 0.00 0.00 0.00 33 1008.6
20260504200042 75 190 11.0 20.0 0.00 0.00 0.00 34 1008.6
20260504194539 75 189 13.0 21.0 0.00 0.00 0.00 35 1008.6
20260504193039 77 217 12.0 19.0 0.00 0.00 0.00 32 1008.9
20260504191535 76 208 9.0 22.0 0.00 0.00 0.00 32 1008.9
20260504190035 76 192 11.0 24.0 0.00 0.00 0.00 32 1008.9
20260504184535 76 227 9.0 20.0 0.00 0.00 0.00 32 1009.4
20260504183040 75 202 13.0 23.0 0.00 0.00 0.00 33 1009.7
20260504181534 75 188 13.0 19.0 0.00 0.00 0.00 32 1010.0
20260504180039 74 228 9.0 22.0 0.00 0.00 0.00 32 1010.2
20260504174534 74 252 14.0 21.0 0.00 0.00 0.00 32 1010.3
20260504173046 74 215 10.0 17.0 0.00 0.00 0.00 32 1010.5
20260504171540 73 219 7.0 15.0 0.00 0.00 0.00 33 1011.0